TimeCDT,TemperatureF,Dew PointF,Humidity,Sea Level PressureIn,VisibilityMPH,Wind Direction,Wind SpeedMPH,Gust SpeedMPH,PrecipitationIn,Events,Conditions,WindDirDegrees,DateUTC
12:12 AM,21.2,14.0,74,30.33,10.0,Calm,Calm,-,N/A,,Clear,0,2013-03-28 05:12:00
12:32 AM,19.4,14.0,80,30.33,10.0,Calm,Calm,-,N/A,,Clear,0,2013-03-28 05:32:00
12:52 AM,19.4,14.0,80,30.33,10.0,Calm,Calm,-,N/A,,Clear,0,2013-03-28 05:52:00
1:12 AM,19.4,14.0,80,30.34,10.0,Calm,Calm,-,N/A,,Clear,0,2013-03-28 06:12:00
1:32 AM,19.4,14.0,80,30.34,10.0,Calm,Calm,-,N/A,,Clear,0,2013-03-28 06:32:00
1:52 AM,17.6,14.0,86,30.34,10.0,Calm,Calm,-,N/A,,Clear,0,2013-03-28 06:52:00
2:12 AM,17.6,14.0,86,30.34,10.0,Calm,Calm,-,N/A,,Clear,0,2013-03-28 07:12:00
2:32 AM,17.6,14.0,86,30.34,10.0,Calm,Calm,-,N/A,,Clear,0,2013-03-28 07:32:00
2:52 AM,17.6,14.0,86,30.34,10.0,Calm,Calm,-,N/A,,Clear,0,2013-03-28 07:52:00
3:12 AM,17.6,14.0,86,30.34,10.0,Calm,Calm,-,N/A,,Clear,0,2013-03-28 08:12:00
3:32 AM,15.8,12.2,86,30.34,10.0,Calm,Calm,-,N/A,,Clear,0,2013-03-28 08:32:00
3:52 AM,15.8,12.2,86,30.33,10.0,Calm,Calm,-,N/A,,Clear,0,2013-03-28 08:52:00
4:12 AM,15.8,12.2,86,30.33,10.0,Calm,Calm,-,N/A,,Clear,0,2013-03-28 09:12:00
4:32 AM,17.6,14.0,86,30.33,10.0,Calm,Calm,-,N/A,,Clear,0,2013-03-28 09:32:00
4:51 AM,17.6,14.0,86,30.33,10.0,Calm,Calm,-,N/A,,Clear,0,2013-03-28 09:51:00
5:12 AM,14.0,12.2,93,30.33,10.0,Calm,Calm,-,N/A,,Clear,0,2013-03-28 10:12:00
5:32 AM,14.0,10.4,86,30.33,10.0,Calm,Calm,-,N/A,,Clear,0,2013-03-28 10:32:00
5:52 AM,14.0,10.4,86,30.34,10.0,Calm,Calm,-,N/A,,Clear,0,2013-03-28 10:52:00
6:12 AM,14.0,10.4,86,30.34,10.0,Calm,Calm,-,N/A,,Clear,0,2013-03-28 11:12:00
6:32 AM,14.0,10.4,86,30.34,10.0,Calm,Calm,-,N/A,,Clear,0,2013-03-28 11:32:00
6:52 AM,14.0,12.2,93,30.33,10.0,Calm,Calm,-,N/A,,Clear,0,2013-03-28 11:52:00
7:12 AM,14.0,12.2,93,30.34,10.0,Calm,Calm,-,N/A,,Clear,0,2013-03-28 12:12:00
7:32 AM,14.0,12.2,93,30.34,10.0,Calm,Calm,-,N/A,,Clear,0,2013-03-28 12:32:00
7:52 AM,14.0,12.2,93,30.35,10.0,Calm,Calm,-,N/A,,Clear,0,2013-03-28 12:52:00
8:12 AM,15.8,12.2,86,30.34,10.0,Calm,Calm,-,N/A,,Clear,0,2013-03-28 13:12:00
8:32 AM,17.6,14.0,86,30.34,10.0,Calm,Calm,-,N/A,,Clear,0,2013-03-28 13:32:00
8:52 AM,21.2,17.6,86,30.34,10.0,Calm,Calm,-,N/A,,Clear,0,2013-03-28 13:52:00
9:12 AM,24.8,17.6,74,30.34,10.0,Calm,Calm,-,N/A,,Clear,0,2013-03-28 14:12:00
9:32 AM,26.6,17.6,69,30.34,10.0,Calm,Calm,-,N/A,,Clear,0,2013-03-28 14:32:00
9:51 AM,30.2,19.4,64,30.34,10.0,Calm,Calm,-,N/A,,Clear,0,2013-03-28 14:51:00
10:12 AM,33.8,19.4,56,30.34,10.0,Calm,Calm,-,N/A,,Clear,0,2013-03-28 15:12:00
10:32 AM,35.6,17.6,48,30.34,10.0,Calm,Calm,-,N/A,,Clear,0,2013-03-28 15:32:00
10:52 AM,37.4,19.4,48,30.34,10.0,Calm,Calm,-,N/A,,Clear,0,2013-03-28 15:52:00
11:12 AM,37.4,17.6,45,30.34,10.0,Calm,Calm,-,N/A,,Clear,0,2013-03-28 16:12:00
11:32 AM,37.4,15.8,41,30.34,10.0,Calm,Calm,-,N/A,,Clear,0,2013-03-28 16:32:00
11:52 AM,39.2,17.6,42,30.34,10.0,South,4.6,-,N/A,,Clear,190,2013-03-28 16:52:00
12:12 PM,39.2,17.6,42,30.34,10.0,South,4.6,-,N/A,,Clear,190,2013-03-28 17:12:00
12:32 PM,39.2,17.6,42,30.34,10.0,South,3.5,-,N/A,,Clear,180,2013-03-28 17:32:00
12:52 PM,41.0,17.6,39,30.34,10.0,SSE,4.6,-,N/A,,Clear,160,2013-03-28 17:52:00
1:12 PM,41.0,17.6,39,30.33,10.0,SSE,3.5,-,N/A,,Clear,160,2013-03-28 18:12:00
1:32 PM,41.0,17.6,39,30.33,10.0,Calm,Calm,-,N/A,,Clear,0,2013-03-28 18:32:00
1:52 PM,41.0,17.6,39,30.33,10.0,South,3.5,-,N/A,,Clear,180,2013-03-28 18:52:00
2:12 PM,42.8,19.4,39,30.32,10.0,Calm,Calm,-,N/A,,Clear,0,2013-03-28 19:12:00
2:32 PM,42.8,17.6,36,30.31,10.0,South,4.6,-,N/A,,Clear,170,2013-03-28 19:32:00
2:52 PM,42.8,17.6,36,30.31,10.0,SE,4.6,-,N/A,,Clear,140,2013-03-28 19:52:00
3:11 PM,42.8,17.6,36,30.30,10.0,Calm,Calm,-,N/A,,Clear,0,2013-03-28 20:11:00
3:32 PM,42.8,17.6,36,30.30,10.0,Calm,Calm,-,N/A,,Clear,0,2013-03-28 20:32:00
3:52 PM,42.8,17.6,36,30.29,10.0,SE,3.5,-,N/A,,Clear,130,2013-03-28 20:52:00
4:12 PM,42.8,17.6,36,30.29,10.0,SSE,3.5,-,N/A,,Clear,160,2013-03-28 21:12:00
4:32 PM,42.8,17.6,36,30.29,10.0,South,3.5,-,N/A,,Clear,170,2013-03-28 21:32:00
4:52 PM,42.8,17.6,36,30.28,10.0,Calm,Calm,-,N/A,,Clear,0,2013-03-28 21:52:00
5:12 PM,41.0,17.6,39,30.28,10.0,SE,3.5,-,N/A,,Clear,140,2013-03-28 22:12:00
5:32 PM,41.0,17.6,39,30.28,10.0,SSE,3.5,-,N/A,,Clear,150,2013-03-28 22:32:00
5:52 PM,41.0,17.6,39,30.28,10.0,SSE,3.5,-,N/A,,Clear,150,2013-03-28 22:52:00
6:12 PM,39.2,17.6,42,30.28,10.0,SSE,3.5,-,N/A,,Clear,160,2013-03-28 23:12:00
6:32 PM,39.2,17.6,42,30.28,10.0,South,3.5,-,N/A,,Clear,170,2013-03-28 23:32:00
6:52 PM,37.4,17.6,45,30.28,10.0,South,3.5,-,N/A,,Clear,170,2013-03-28 23:52:00
7:12 PM,37.4,17.6,45,30.28,10.0,Calm,Calm,-,N/A,,Scattered Clouds,0,2013-03-29 00:12:00
7:32 PM,35.6,17.6,48,30.28,10.0,Calm,Calm,-,N/A,,Mostly Cloudy,0,2013-03-29 00:32:00
7:52 PM,35.6,19.4,52,30.28,10.0,Calm,Calm,-,N/A,,Overcast,0,2013-03-29 00:52:00
8:12 PM,33.8,19.4,56,30.29,10.0,Calm,Calm,-,N/A,,Scattered Clouds,0,2013-03-29 01:12:00
8:32 PM,32.0,19.4,60,30.29,10.0,Calm,Calm,-,N/A,,Clear,0,2013-03-29 01:32:00
8:52 PM,30.2,21.2,69,30.29,10.0,Calm,Calm,-,N/A,,Clear,0,2013-03-29 01:52:00
9:12 PM,30.2,21.2,69,30.29,10.0,Calm,Calm,-,N/A,,Clear,0,2013-03-29 02:12:00
9:32 PM,28.4,21.2,74,30.30,10.0,Calm,Calm,-,N/A,,Clear,0,2013-03-29 02:32:00
9:52 PM,28.4,19.4,69,30.30,10.0,Calm,Calm,-,N/A,,Clear,0,2013-03-29 02:52:00
10:12 PM,26.6,19.4,74,30.30,10.0,Calm,Calm,-,N/A,,Clear,0,2013-03-29 03:12:00
10:32 PM,26.6,21.2,80,30.30,10.0,Calm,Calm,-,N/A,,Clear,0,2013-03-29 03:32:00
10:52 PM,26.6,21.2,80,30.29,10.0,Calm,Calm,-,N/A,,Clear,0,2013-03-29 03:52:00
11:12 PM,24.8,19.4,80,30.29,10.0,Calm,Calm,-,N/A,,Clear,0,2013-03-29 04:12:00
11:32 PM,26.6,21.2,80,30.29,10.0,Calm,Calm,-,N/A,,Scattered Clouds,0,2013-03-29 04:32:00
11:51 PM,26.6,21.2,80,30.28,10.0,Calm,Calm,-,N/A,,Mostly Cloudy,0,2013-03-29 04:51:00